Temp
-6 -7 -7 -8 -7 -7 -7 -7 -7 -8 -9 -9 -9 -9 -8 -8 -8 -7 -7 -7 -7 -7 -7 -8 -8 -8 -8 -8 -9 -9 -9 -9 -10 -10 -10 -10 -11 -11 -11 -11 -11 -11 -11 -11 -11 -11 -11 -11 -11
-6 -7 -7 -7 -8 -8 -7 -7 -7 -7 -6 -7 -8 -8 -8 -8 -8 -7 -7 -7 -7 -7 -8 -8 -8 -8 -8 -8 -9 -9 -9 -9 -10 -10 -10 -11 -11 -11 -11 -11 -11 -11 -11 -11 -11 -11 -11 -11 -11
-6 -6 -7 -7 -8 -8 -7 -7 -7 -7 -6 -7 -7 -7 -7 -8 -8 -8 -8 -7 -7 -8 -8 -8 -8 -8 -8 -8 -9 -9 -9 -9 -10 -10 -11 -11 -11 -11 -12 -11 -11 -11 -12 -12 -11 -11 -11 -11 -11
-6 -6 -7 -7 -7 -8 -7 -7 -7 -7 -7 -7 -7 -7 -7 -8 -8 -8 -8 -8 -7 -7 -7 -8 -8 -8 -8 -9 -9 -9 -9 -9 -10 -10 -10 -11 -11 -11 -11 -11 -11 -11 -12 -12 -12 -12 -12 -12 -12
-6 -6 -7 -7 -7 -8 -8 -7 -7 -7 -7 -7 -7 -7 -7 -7 -8 -8 -8 -8 -7 -7 -7 -8 -8 -8 -9 -9 -9 -9 -9 -10 -10 -10 -10 -11 -11 -11 -11 -11 -11 -11 -12 -12 -12 -12 -12 -12 -12
-7 -7 -7 -7 -7 -7 -7 -7 -7 -7 -7 -7 -7 -7 -7 -7 -7 -7 -8 -7 -7 -7 -7 -8 -8 -8 -9 -9 -9 -9 -10 -10 -10 -10 -11 -11 -11 -11 -11 -11 -12 -12 -12 -12 -12 -12 -12 -12 -12
-7 -7 -7 -7 -8 -8 -8 -8 -8 -7 -7 -7 -7 -7 -7 -7 -7 -7 -7 -7 -7 -8 -8 -8 -8 -9 -9 -9 -9 -10 -10 -10 -10 -11 -11 -11 -11 -11 -11 -12 -12 -12 -12 -12 -12 -12 -12 -12 -12
-7 -7 -7 -7 -8 -8 -8 -8 -8 -8 -7 -7 -7 -7 -7 -7 -7 -7 -7 -8 -8 -8 -8 -8 -8 -9 -9 -9 -10 -10 -10 -10 -10 -11 -11 -11 -11 -12 -12 -12 -12 -12 -12 -12 -12 -12 -12 -12 -12
-8 -8 -8 -8 -8 -8 -8 -8 -8 -8 -8 -8 -7 -7 -7 -7 -8 -8 -8 -8 -8 -8 -8 -8 -9 -9 -9 -10 -10 -10 -10 -11 -11 -11 -11 -12 -12 -12 -12 -12 -12 -12 -12 -12 -12 -12 -12 -12 -12
-8 -8 -8 -8 -8 -8 -8 -8 -8 -8 -8 -8 -8 -8 -8 -8 -8 -8 -8 -8 -8 -8 -9 -9 -9 -9 -9 -10 -10 -10 -11 -11 -11 -11 -11 -12 -12 -12 -12 -12 -12 -12 -12 -12 -12 -12 -12 -12 -12
-8 -8 -8 -8 -8 -8 -8 -8 -8 -8 -9 -9 -8 -8 -8 -8 -8 -8 -8 -8 -8 -8 -9 -9 -9 -9 -9 -10 -10 -10 -11 -11 -12 -12 -12 -12 -12 -12 -12 -13 -12 -12 -12 -12 -12 -12 -13 -12 -12
-8 -8 -8 -8 -8 -8 -8 -8 -8 -8 -8 -8 -8 -8 -8 -8 -8 -8 -8 -8 -9 -9 -9 -9 -10 -10 -10 -10 -10 -11 -11 -12 -12 -12 -12 -12 -12 -12 -13 -13 -13 -13 -12 -12 -12 -13 -13 -13 -12
-8 -8 -8 -8 -9 -8 -8 -8 -8 -8 -9 -8 -8 -8 -8 -8 -8 -8 -8 -8 -9 -9 -9 -9 -10 -10 -10 -10 -11 -11 -12 -12 -12 -12 -12 -12 -12 -12 -12 -13 -13 -13 -13 -13 -13 -13 -12 -12 -12
-9 -8 -8 -9 -9 -9 -8 -8 -8 -9 -9 -8 -8 -8 -8 -8 -8 -8 -8 -8 -9 -10 -10 -10 -10 -10 -10 -11 -11 -12 -12 -12 -12 -12 -12 -12 -12 -12 -12 -12 -13 -13 -13 -13 -13 -13 -13 -13 -13
-9 -8 -9 -9 -9 -9 -8 -8 -8 -8 -8 -8 -8 -8 -8 -8 -8 -8 -8 -9 -10 -11 -11 -11 -11 -11 -11 -11 -11 -12 -13 -12 -12 -12 -12 -12 -13 -13 -13 -13 -13 -13 -13 -13 -13 -13 -13 -13 -13
-9 -9 -8 -9 -9 -9 -8 -8 -8 -8 -8 -9 -9 -9 -8 -9 -9 -9 -9 -10 -11 -12 -12 -12 -12 -12 -11 -11 -12 -12 -13 -13 -13 -13 -13 -13 -13 -13 -13 -13 -13 -13 -13 -13 -13 -13 -13 -13 -13
-9 -9 -9 -9 -9 -9 -9 -8 -8 -9 -9 -9 -9 -9 -9 -9 -9 -10 -9 -10 -10 -11 -12 -12 -12 -12 -12 -12 -13 -13 -14 -14 -14 -13 -13 -13 -13 -13 -13 -13 -13 -13 -13 -13 -14 -14 -13 -13 -13
-9 -9 -9 -9 -10 -9 -10 -9 -9 -9 -10 -9 -9 -9 -9 -9 -10 -10 -10 -10 -10 -11 -12 -13 -13 -13 -12 -13 -13 -13 -14 -14 -14 -13 -13 -13 -12 -13 -13 -13 -13 -13 -14 -14 -14 -14 -14 -13 -14
-10 -9 -9 -10 -10 -10 -10 -10 -10 -10 -10 -10 -10 -10 -10 -10 -10 -10 -10 -10 -11 -12 -13 -13 -13 -13 -13 -13 -13 -14 -14 -14 -14 -13 -13 -13 -13 -13 -14 -13 -13 -14 -14 -14 -14 -15 -14 -14 -14
-10 -10 -10 -10 -10 -10 -10 -10 -11 -11 -11 -11 -11 -10 -10 -11 -11 -11 -11 -11 -11 -12 -12 -12 -13 -13 -13 -13 -13 -13 -13 -14 -14 -13 -13 -14 -14 -14 -14 -14 -14 -14 -14 -14 -14 -15 -15 -15 -14
-11 -10 -10 -10 -11 -11 -11 -10 -11 -12 -11 -11 -11 -11 -11 -12 -12 -12 -11 -11 -11 -12 -13 -13 -12 -13 -13 -13 -13 -13 -13 -14 -14 -15 -14 -14 -14 -14 -15 -14 -14 -14 -14 -14 -15 -15 -15 -15 -15
-11 -11 -11 -11 -11 -11 -11 -10 -12 -12 -12 -12 -12 -12 -12 -12 -12 -12 -12 -12 -12 -12 -12 -13 -13 -13 -13 -13 -13 -13 -13 -14 -14 -14 -15 -15 -15 -15 -15 -15 -15 -15 -15 -15 -15 -15 -16 -15 -15
-11 -12 -12 -12 -12 -11 -12 -12 -12 -12 -13 -13 -13 -12 -12 -12 -12 -12 -12 -12 -12 -12 -12 -13 -13 -13 -13 -13 -13 -14 -14 -14 -14 -14 -15 -14 -14 -15 -15 -15 -15 -15 -15 -15 -15 -16 -16 -16 -16
-12 -12 -12 -12 -12 -11 -12 -13 -12 -13 -13 -13 -13 -13 -13 -13 -12 -12 -12 -13 -12 -12 -13 -13 -13 -13 -14 -14 -14 -14 -14 -14 -14 -14 -15 -15 -15 -15 -15 -14 -15 -15 -15 -15 -15 -15 -15 -16 -16
-13 -13 -13 -12 -13 -12 -12 -13 -13 -13 -13 -13 -13 -13 -13 -13 -13 -13 -12 -12 -13 -13 -13 -13 -13 -14 -14 -14 -15 -14 -14 -14 -15 -15 -15 -15 -15 -15 -15 -15 -15 -15 -16 -16 -16 -16 -16 -16 -16
-13 -13 -13 -14 -14 -14 -14 -13 -13 -13 -13 -13 -13 -13 -13 -13 -13 -13 -13 -14 -15 -15 -15 -14 -15 -15 -15 -15 -15 -15 -15 -15 -15 -16 -15 -16 -15 -16 -16 -16 -16 -16 -16 -17 -17 -16 -16 -16 -16
-14 -14 -15 -15 -14 -14 -14 -14 -14 -13 -13 -13 -13 -14 -14 -14 -14 -14 -14 -15 -15 -15 -15 -16 -16 -16 -16 -16 -16 -15 -15 -16 -16 -16 -16 -16 -16 -17 -17 -17 -17 -17 -17 -17 -17 -17 -17 -17 -17
-14 -15 -15 -15 -14 -14 -14 -14 -15 -15 -15 -15 -14 -14 -14 -15 -15 -15 -15 -16 -17 -16 -16 -16 -16 -16 -16 -16 -16 -17 -17 -17 -18 -17 -17 -17 -18 -18 -18 -18 -18 -18 -17 -17 -17 -17 -18 -18 -18
-15 -15 -16 -16 -16 -15 -15 -15 -15 -16 -15 -15 -15 -15 -16 -16 -16 -16 -16 -16 -16 -17 -18 -18 -18 -18 -18 -17 -17 -18 -18 -18 -19 -18 -18 -18 -18 -19 -18 -18 -18 -18 -18 -18 -18 -18 -18 -18 -18
-16 -16 -16 -16 -16 -16 -17 -16 -16 -17 -17 -17 -18 -17 -17 -18 -17 -17 -17 -17 -18 -19 -19 -19 -19 -19 -19 -19 -19 -18 -18 -18 -18 -19 -18 -18 -18 -18 -19 -19 -19 -19 -19 -19 -19 -18 -18 -18 -19
Height
5905 5906 5906 5904 5905 5903 5901 5900 5901 5901 5899 5899 5898 5899 5899 5899 5900 5900 5898 5896 5895 5893 5890 5889 5887 5886 5883 5880 5878 5876 5875 5873 5872 5872 5871 5870 5868 5866 5864 5862 5861 5859 5858 5857 5856 5855 5855 5854 5853
5904 5905 5906 5904 5903 5901 5901 5902 5900 5899 5898 5896 5895 5894 5895 5897 5897 5896 5896 5895 5893 5891 5888 5887 5885 5884 5882 5880 5878 5876 5874 5872 5871 5870 5869 5868 5866 5864 5863 5862 5860 5858 5857 5856 5854 5854 5853 5852 5852
5903 5904 5905 5903 5899 5898 5901 5901 5901 5900 5900 5896 5894 5895 5896 5896 5895 5894 5893 5892 5891 5889 5888 5886 5884 5882 5881 5879 5876 5875 5873 5872 5871 5869 5867 5866 5865 5863 5862 5861 5859 5857 5855 5854 5853 5852 5852 5852 5850
5901 5903 5904 5901 5898 5896 5899 5900 5899 5900 5900 5899 5898 5897 5898 5897 5895 5892 5890 5890 5889 5888 5887 5884 5882 5880 5878 5877 5875 5873 5872 5870 5869 5867 5866 5864 5863 5862 5861 5859 5858 5856 5854 5853 5851 5850 5849 5850 5850
5898 5900 5900 5898 5896 5895 5896 5897 5897 5896 5897 5898 5896 5896 5897 5895 5894 5891 5888 5888 5887 5887 5885 5881 5879 5878 5876 5874 5873 5871 5870 5868 5867 5866 5864 5863 5861 5860 5859 5858 5856 5855 5853 5851 5850 5848 5847 5846 5848
5894 5897 5898 5896 5893 5894 5895 5896 5895 5893 5893 5895 5894 5892 5893 5893 5890 5889 5887 5886 5886 5884 5882 5879 5877 5875 5873 5871 5870 5869 5867 5866 5864 5863 5861 5860 5859 5858 5857 5856 5854 5853 5852 5850 5849 5847 5846 5844 5843
5891 5892 5894 5894 5891 5892 5892 5893 5893 5890 5888 5889 5889 5889 5890 5889 5887 5886 5885 5884 5882 5881 5879 5877 5874 5872 5870 5868 5867 5865 5864 5863 5861 5860 5858 5857 5856 5856 5854 5853 5852 5850 5850 5849 5847 5846 5844 5843 5842
5887 5889 5890 5890 5888 5890 5890 5890 5890 5889 5886 5884 5883 5883 5884 5885 5883 5883 5881 5879 5878 5876 5874 5872 5869 5868 5866 5864 5862 5861 5860 5859 5858 5856 5855 5854 5853 5852 5851 5850 5849 5847 5846 5846 5844 5843 5842 5841 5839
5882 5885 5886 5885 5884 5886 5887 5886 5885 5885 5884 5882 5880 5878 5878 5878 5878 5877 5876 5874 5872 5870 5868 5866 5864 5862 5861 5859 5858 5856 5855 5855 5854 5852 5851 5850 5849 5848 5847 5846 5845 5844 5843 5841 5840 5839 5837 5836 5835
5877 5880 5881 5880 5880 5882 5882 5882 5880 5878 5877 5878 5875 5873 5873 5871 5870 5871 5870 5868 5867 5865 5863 5860 5859 5857 5855 5854 5852 5852 5851 5850 5849 5848 5847 5846 5845 5844 5843 5841 5841 5839 5838 5837 5836 5834 5832 5830 5830
5873 5875 5873 5874 5875 5877 5877 5876 5875 5873 5874 5870 5870 5868 5868 5868 5866 5866 5864 5862 5860 5859 5856 5854 5852 5850 5849 5848 5847 5846 5845 5844 5843 5842 5842 5840 5839 5839 5838 5837 5835 5834 5832 5831 5831 5829 5827 5825 5824
5866 5867 5868 5870 5869 5869 5869 5868 5868 5866 5867 5865 5863 5862 5863 5863 5862 5861 5858 5856 5854 5852 5848 5846 5844 5843 5843 5842 5840 5839 5838 5837 5836 5836 5835 5834 5833 5832 5832 5830 5829 5827 5826 5826 5825 5822 5820 5818 5818
5858 5861 5860 5862 5863 5863 5860 5860 5858 5862 5858 5855 5856 5855 5856 5854 5853 5852 5849 5847 5846 5844 5840 5840 5837 5835 5835 5835 5833 5832 5830 5830 5830 5829 5829 5828 5826 5825 5825 5824 5822 5821 5820 5820 5819 5816 5814 5812 5811
5851 5852 5854 5854 5854 5853 5852 5852 5851 5852 5847 5848 5847 5848 5846 5848 5847 5843 5842 5837 5837 5834 5833 5832 5829 5826 5826 5826 5825 5825 5824 5823 5823 5823 5822 5821 5820 5819 5819 5817 5816 5814 5813 5812 5811 5810 5808 5806 5805
5844 5844 5844 5845 5843 5842 5843 5844 5843 5842 5840 5840 5839 5840 5839 5838 5836 5837 5832 5826 5824 5824 5824 5823 5820 5817 5816 5818 5818 5817 5816 5816 5815 5815 5815 5814 5813 5813 5811 5810 5811 5809 5807 5806 5804 5803 5801 5800 5799
5835 5835 5835 5835 5833 5831 5832 5833 5832 5831 5831 5829 5828 5826 5826 5828 5828 5826 5823 5819 5815 5814 5813 5812 5812 5810 5810 5810 5809 5808 5808 5808 5807 5807 5807 5806 5805 5805 5804 5804 5803 5802 5801 5800 5798 5797 5796 5794 5792
5825 5823 5822 5823 5823 5822 5822 5822 5820 5818 5818 5817 5817 5815 5815 5816 5816 5815 5814 5811 5808 5806 5805 5806 5804 5800 5799 5798 5799 5798 5799 5799 5798 5798 5798 5798 5798 5798 5797 5796 5796 5794 5793 5792 5790 5789 5788 5787 5786
5809 5811 5811 5811 5811 5809 5809 5809 5809 5808 5806 5805 5807 5807 5806 5806 5808 5806 5806 5804 5802 5800 5799 5799 5796 5792 5790 5791 5791 5790 5788 5788 5788 5789 5790 5790 5790 5789 5789 5789 5788 5787 5786 5786 5784 5781 5779 5779 5779
5800 5800 5801 5801 5799 5799 5800 5799 5798 5795 5795 5796 5796 5796 5797 5798 5798 5797 5797 5797 5795 5793 5790 5788 5787 5784 5783 5782 5782 5780 5778 5779 5779 5780 5781 5781 5780 5780 5780 5782 5780 5780 5779 5779 5778 5775 5772 5771 5771
5791 5791 5791 5792 5790 5791 5790 5791 5790 5787 5787 5787 5787 5788 5789 5789 5789 5788 5788 5788 5787 5784 5782 5781 5779 5776 5775 5773 5770 5767 5767 5767 5769 5771 5771 5772 5772 5772 5771 5771 5772 5772 5771 5770 5769 5768 5766 5763 5762
5782 5783 5783 5783 5782 5781 5781 5783 5781 5779 5778 5779 5780 5779 5780 5780 5780 5780 5780 5780 5780 5777 5775 5774 5771 5768 5765 5764 5761 5759 5758 5758 5759 5760 5761 5761 5761 5761 5761 5762 5761 5761 5761 5761 5760 5759 5757 5755 5755
5775 5773 5774 5773 5773 5773 5773 5775 5774 5772 5770 5770 5770 5771 5771 5771 5772 5772 5772 5772 5773 5770 5769 5767 5766 5763 5760 5758 5754 5752 5752 5751 5750 5750 5750 5751 5751 5750 5750 5751 5752 5752 5750 5750 5749 5748 5748 5747 5745
5768 5765 5765 5765 5766 5765 5765 5766 5765 5765 5764 5765 5766 5766 5764 5764 5764 5764 5763 5763 5762 5761 5760 5758 5757 5755 5753 5750 5746 5745 5746 5745 5743 5742 5742 5742 5741 5740 5740 5740 5740 5741 5740 5739 5739 5738 5736 5735 5735
5757 5758 5757 5757 5757 5757 5757 5757 5757 5757 5757 5755 5755 5757 5758 5758 5757 5757 5756 5755 5754 5752 5751 5748 5745 5744 5744 5742 5739 5738 5738 5737 5735 5734 5732 5731 5731 5730 5730 5728 5728 5727 5728 5726 5725 5725 5725 5723 5722
5749 5749 5747 5748 5748 5750 5747 5746 5748 5749 5750 5749 5747 5747 5748 5749 5750 5749 5748 5746 5744 5744 5742 5739 5734 5732 5732 5730 5729 5728 5727 5725 5725 5723 5721 5720 5719 5719 5717 5716 5715 5714 5713 5714 5712 5711 5711 5710 5709
5739 5740 5738 5738 5740 5740 5738 5736 5737 5739 5740 5741 5739 5738 5739 5740 5739 5738 5735 5734 5734 5732 5731 5729 5726 5723 5720 5718 5717 5714 5712 5712 5711 5710 5709 5708 5707 5705 5705 5704 5703 5701 5700 5699 5698 5697 5697 5696 5695
5731 5731 5734 5730 5729 5729 5730 5728 5726 5728 5729 5730 5730 5730 5729 5728 5728 5727 5725 5723 5722 5722 5721 5717 5715 5712 5709 5708 5707 5704 5702 5701 5698 5698 5696 5695 5693 5693 5691 5690 5690 5689 5688 5686 5684 5684 5684 5683 5682
5720 5724 5721 5719 5720 5719 5720 5717 5714 5715 5715 5716 5717 5718 5718 5719 5718 5717 5715 5712 5710 5708 5707 5706 5704 5701 5696 5694 5691 5690 5687 5686 5685 5683 5681 5679 5679 5679 5678 5677 5675 5674 5673 5672 5670 5669 5668 5668 5668
5710 5710 5710 5711 5711 5709 5709 5708 5705 5701 5703 5703 5701 5703 5704 5704 5704 5703 5701 5699 5697 5695 5694 5691 5689 5686 5684 5682 5679 5677 5674 5673 5671 5669 5668 5666 5663 5661 5659 5657 5657 5657 5655 5654 5653 5652 5652 5652 5652
5699 5700 5698 5698 5702 5700 5698 5696 5695 5694 5691 5691 5691 5690 5691 5691 5690 5689 5688 5685 5682 5682 5682 5680 5677 5675 5672 5669 5666 5664 5662 5660 5657 5654 5652 5649 5645 5642 5640 5638 5638 5637 5635 5635 5634 5634 5635 5635 5635
Wind_Speed
9 7 8 10 10 7 4 4 1 3 6 8 13 18 17 22 24 23 23 23 23 22 22 23 24 24 24 22 21 22 21 19 17 15 13 15 18 18 20 19 17 17 17 16 15 13 11 9 8
9 9 9 9 12 11 9 7 10 8 4 6 10 16 19 21 21 24 24 23 23 24 24 23 23 24 24 22 22 21 21 20 18 16 15 14 16 18 18 20 19 18 17 16 16 16 13 11 10
12 12 9 8 11 16 12 12 12 14 8 7 11 14 18 20 22 24 23 23 23 23 24 24 23 21 24 24 21 21 20 20 19 16 15 15 15 16 18 19 19 18 18 16 17 17 17 13 12
16 14 12 12 15 16 14 14 15 16 18 12 9 12 15 18 21 24 24 22 22 23 25 24 24 24 23 24 23 21 19 19 17 15 14 14 14 16 16 16 16 16 17 17 16 17 17 15 14
19 17 15 15 17 18 15 17 18 19 19 14 13 15 16 15 14 18 20 21 21 21 25 27 26 25 24 23 24 22 19 19 17 15 13 13 13 14 14 14 14 13 14 14 15 16 17 17 16
21 20 17 17 21 21 20 19 19 22 24 19 14 20 20 19 17 16 18 22 21 21 24 28 28 27 25 24 24 23 20 18 18 16 14 13 13 13 14 14 14 14 15 16 17 17 17 18 17
23 22 20 18 22 20 20 18 19 23 26 24 22 23 21 19 18 17 18 22 25 23 24 28 31 31 28 26 25 23 21 18 18 17 15 14 14 14 14 15 15 15 16 17 19 19 19 18 19
25 24 22 21 22 21 20 21 21 23 26 28 28 28 27 21 19 26 31 35 31 28 26 28 31 32 30 27 26 25 23 21 19 18 17 15 16 15 16 16 16 16 17 19 20 21 22 21 20
27 25 23 25 26 25 24 24 24 24 24 26 27 28 27 27 24 26 31 33 28 29 29 30 32 33 31 28 27 26 25 23 21 20 20 19 19 18 19 18 18 19 20 21 21 23 23 24 24
31 28 28 29 29 27 26 28 27 28 27 25 28 30 31 31 30 30 34 35 35 33 32 32 33 34 32 28 28 28 27 25 24 23 22 22 22 22 23 21 21 23 24 24 25 25 26 27 27
33 31 32 32 33 32 29 30 31 33 27 31 36 38 37 36 36 33 39 41 40 39 38 38 35 34 34 32 30 30 29 28 27 26 25 25 25 25 25 25 25 25 27 27 27 30 28 29 28
36 35 35 33 33 33 33 34 35 33 31 39 40 41 42 44 47 46 46 46 46 44 44 40 39 36 35 34 32 31 30 30 31 28 28 28 28 28 28 29 28 28 26 26 30 31 30 29 28
40 37 38 36 33 35 39 40 44 42 41 46 46 50 53 55 54 48 48 51 49 47 46 43 40 39 38 36 34 33 33 33 33 32 30 29 30 32 31 31 31 30 28 28 30 32 32 29 28
40 41 41 41 39 42 45 46 46 41 44 49 54 55 56 52 46 48 52 56 51 47 45 43 42 44 41 37 35 35 36 35 35 34 31 31 32 32 32 33 32 32 31 31 30 31 31 28 27
42 44 43 43 49 50 51 53 51 52 55 58 58 56 57 58 56 51 55 56 51 46 42 43 45 45 43 38 35 37 38 36 36 34 33 32 32 32 33 35 34 33 33 34 33 31 30 28 26
48 48 47 46 48 51 55 56 55 58 60 59 59 63 60 57 55 51 48 50 47 43 37 39 40 43 42 38 37 38 39 37 37 35 35 34 34 33 34 35 34 34 34 34 35 34 30 28 28
52 54 55 55 54 54 58 60 61 58 56 53 56 54 51 48 46 41 40 42 42 37 33 32 36 40 38 38 37 38 38 38 38 37 37 36 35 35 36 36 34 34 34 34 34 33 31 29 30
58 56 55 53 44 47 46 45 45 44 46 47 46 43 42 41 39 38 37 36 39 38 33 28 32 35 36 38 39 41 41 41 41 41 40 39 40 39 37 36 33 33 35 34 35 32 31 32 32
47 49 49 39 39 44 38 40 40 42 42 44 47 45 45 43 40 39 39 35 32 35 35 30 31 35 37 38 39 42 44 44 43 42 42 42 43 41 38 36 35 34 35 35 35 33 30 32 34
43 42 40 40 40 39 39 37 36 38 39 40 42 42 42 41 39 36 34 30 28 31 35 32 31 35 37 37 38 44 45 45 43 44 44 44 43 41 39 37 37 38 38 38 36 35 35 33 34
38 38 39 38 36 38 39 38 35 34 36 36 36 37 37 33 31 32 32 29 30 30 32 32 32 30 34 40 41 37 37 41 40 41 42 41 41 41 40 39 38 39 40 41 40 38 38 37 38
37 36 34 33 33 33 32 29 27 29 30 31 33 32 30 31 29 30 31 30 30 32 34 36 36 37 37 37 34 36 35 36 40 38 40 39 40 41 42 42 42 42 43 44 44 44 42 43 42
37 35 34 33 32 35 32 33 30 28 29 26 25 29 32 33 33 33 35 34 33 32 37 40 41 40 41 43 39 41 39 38 38 40 41 42 43 43 41 44 46 47 47 48 48 47 48 47 47
40 36 32 34 35 37 32 29 32 30 31 34 37 35 33 34 33 30 28 30 31 33 39 44 47 48 47 48 48 50 49 47 42 44 41 45 48 49 46 50 51 49 52 50 50 50 51 52 52
37 36 35 34 33 33 35 35 36 35 35 39 45 47 38 38 33 36 35 33 29 34 38 44 46 50 53 56 54 58 55 49 51 51 50 51 50 51 49 52 53 52 52 55 55 56 57 56 55
33 34 35 30 29 32 36 40 42 44 46 47 48 48 47 40 38 38 38 35 36 39 41 43 45 47 51 55 54 55 57 52 55 53 52 55 59 50 50 53 53 52 53 53 55 55 54 56 56
32 34 29 33 38 39 40 41 43 46 49 53 51 50 46 40 38 39 41 42 43 43 43 44 46 46 49 54 60 62 60 59 54 55 57 60 57 56 50 52 52 53 53 54 54 57 58 56 52
36 32 36 40 41 43 46 47 49 49 51 53 53 54 51 44 43 44 46 46 45 50 52 53 56 60 61 66 68 65 64 62 59 57 57 60 57 53 52 54 56 56 57 57 57 58 60 59 55
40 42 43 42 44 49 52 54 54 54 58 57 55 52 50 50 48 49 51 52 53 53 53 54 57 60 59 57 60 58 59 57 57 60 60 64 66 69 67 67 62 62 63 65 64 61 64 66 63
47 49 49 50 51 54 55 58 56 53 53 53 46 44 57 58 56 54 52 52 53 49 48 50 50 51 57 61 60 61 64 67 71 74 71 68 68 69 67 67 65 64 64 65 63 64 67 70 65
Wind_Direction
204 204 186 189 210 219 248 242 69 269 304 304 305 301 314 317 318 315 323 326 327 325 333 334 333 333 334 334 332 330 329 328 327 318 311 300 311 310 314 312 311 309 310 308 305 299 292 283 269
224 223 219 226 241 244 252 287 320 325 330 301 297 304 308 304 307 310 318 320 321 323 323 323 325 327 326 328 329 328 326 325 323 321 315 305 303 306 307 306 307 310 307 308 306 304 298 288 281
234 231 233 239 241 251 246 262 282 304 303 309 310 303 310 310 311 312 314 314 316 314 314 313 314 318 320 323 324 324 325 324 323 318 311 309 305 304 305 305 306 308 309 312 309 304 300 291 281
239 242 244 244 252 254 270 292 296 303 314 322 305 306 309 309 312 312 309 307 306 308 309 310 312 315 315 320 322 320 322 320 317 313 308 306 304 304 305 306 308 311 314 314 309 304 299 293 281
244 241 246 251 259 263 277 289 296 301 315 321 317 309 313 312 310 305 303 298 297 305 308 308 312 312 314 314 315 316 317 313 311 311 299 296 298 300 304 308 310 313 316 317 316 313 305 296 287
247 247 249 255 259 268 278 289 301 305 306 315 316 308 317 314 302 302 300 296 299 305 308 308 311 309 310 310 309 309 312 308 306 301 297 291 291 292 296 301 305 309 309 309 308 308 309 304 294
250 250 250 254 265 270 282 287 293 297 301 308 309 305 307 307 302 299 298 303 304 305 311 311 310 310 309 308 307 303 304 302 297 293 288 286 282 285 292 294 299 302 306 305 303 303 300 298 297
256 254 255 256 258 268 273 281 285 290 297 303 306 306 303 303 294 309 309 310 306 300 306 307 307 308 308 306 302 300 299 294 288 287 284 278 278 279 281 285 293 299 301 302 300 296 292 288 285
259 260 260 261 264 267 273 280 285 288 290 295 297 298 297 301 301 308 306 305 301 297 301 303 303 301 301 300 297 295 292 288 281 280 280 276 273 275 274 277 283 287 293 298 302 296 288 283 276
262 266 268 268 271 275 279 284 289 292 294 297 296 294 297 301 301 303 303 302 300 295 297 295 295 296 296 293 289 289 287 284 275 274 276 275 274 272 272 273 276 282 286 289 296 299 291 279 275
267 268 268 271 275 282 286 285 285 284 291 295 294 294 295 296 297 300 300 300 297 295 294 293 292 292 293 290 287 284 282 279 274 271 270 272 272 272 274 275 275 276 278 284 290 296 294 282 275
269 270 272 277 280 282 284 284 282 279 286 291 291 292 296 297 297 297 297 293 292 289 288 289 290 289 289 286 279 279 276 273 271 271 269 269 271 270 272 277 278 278 275 281 292 296 290 280 274
269 274 276 276 281 282 280 283 282 293 288 286 289 293 295 293 290 292 290 290 289 286 285 285 286 284 282 280 276 274 272 271 272 271 271 270 270 271 272 275 278 280 277 279 287 297 289 278 269
273 276 278 282 283 283 284 286 290 283 282 291 293 293 292 290 291 287 289 287 287 282 281 281 280 278 276 274 273 274 273 273 272 272 272 272 272 274 276 276 277 279 279 283 288 297 288 277 272
273 274 277 281 282 284 286 284 286 286 286 287 286 285 288 284 287 292 288 285 283 281 279 276 275 275 273 270 269 270 271 272 271 270 271 273 274 275 275 275 280 280 278 285 292 298 287 278 270
273 275 277 277 280 282 283 284 285 284 284 282 283 285 285 281 283 286 284 282 280 281 279 272 272 272 273 268 264 266 269 270 270 268 270 271 273 274 274 275 276 277 276 282 289 296 289 278 271
275 276 274 276 277 278 279 280 282 287 286 279 284 282 285 284 283 282 279 277 277 276 270 266 267 269 265 262 258 261 266 268 267 266 266 268 272 273 272 272 273 275 275 279 286 293 289 277 269
270 275 280 280 279 281 281 282 284 287 285 286 287 287 288 286 280 273 270 272 276 278 272 265 263 263 263 261 258 257 258 259 260 261 263 263 267 271 269 267 268 268 272 277 285 287 288 280 272
275 278 278 279 278 278 284 288 287 285 287 288 288 290 290 288 285 283 283 283 283 285 276 263 258 260 263 262 260 256 256 258 261 263 266 269 272 277 278 277 270 268 270 271 278 283 278 277 275
274 275 274 274 276 281 281 281 282 285 286 286 288 290 290 291 290 288 288 287 282 280 281 281 266 264 261 261 261 257 254 256 259 265 271 277 281 284 282 279 275 273 272 273 274 278 277 274 271
266 268 269 272 275 278 278 280 281 283 281 283 283 283 286 289 291 289 289 286 286 284 280 283 275 267 262 260 257 263 264 264 264 269 274 279 281 282 281 278 274 271 273 275 276 276 277 275 273
260 263 268 271 272 275 279 280 280 282 284 286 288 289 287 284 281 278 279 282 284 283 280 276 271 269 272 277 274 273 280 271 271 271 272 274 276 277 280 280 278 274 272 273 275 277 277 277 273
260 266 267 271 272 273 282 283 281 278 281 295 303 304 297 291 288 284 280 276 275 279 275 276 277 273 272 271 267 279 281 277 270 270 272 278 278 274 276 285 282 279 276 276 277 277 279 278 276
261 271 270 269 271 275 283 283 278 279 284 296 303 303 298 293 290 286 283 278 283 283 275 276 275 273 272 269 273 278 277 279 271 268 268 275 273 272 278 291 284 281 280 279 277 277 277 276 276
267 270 268 268 271 282 282 281 283 285 286 290 295 299 295 300 286 284 286 285 269 260 263 268 275 275 272 269 274 278 277 274 285 271 277 269 269 270 284 287 282 280 280 281 280 280 279 278 277
262 265 264 264 269 271 274 280 287 290 292 295 294 295 298 296 285 281 280 270 264 265 264 265 271 274 277 281 281 282 280 276 280 274 275 273 268 270 276 279 277 278 278 279 280 281 279 279 278
266 265 263 261 268 270 276 281 285 290 292 292 291 294 295 290 280 277 278 276 274 273 266 267 269 269 271 278 278 279 274 274 274 274 277 273 272 271 272 275 276 278 278 278 280 280 278 277 276
269 261 258 264 273 276 277 281 291 295 291 291 292 293 293 290 280 278 277 277 273 271 272 274 273 275 277 280 279 285 288 285 284 282 278 277 273 275 280 281 280 281 280 278 278 281 280 278 275
264 262 265 267 268 275 279 285 289 288 290 291 292 291 293 292 285 281 278 277 277 275 274 274 276 278 283 279 277 282 282 277 279 277 278 282 284 288 290 292 290 285 282 280 280 277 273 274 274
267 263 261 264 275 280 283 285 284 286 288 290 285 280 283 285 282 281 279 275 277 279 279 280 276 272 281 284 280 277 274 276 284 290 290 290 291 290 289 287 285 282 278 275 271 270 269 268 268